Flag for Germany Weather past 2 weeks in Olpe, North Rhine-Westphalia, Germany

Now
57 °F

Light rain. Broken clouds.


Feels Like: 55 °F
Forecast: 51 / 60 °F
Wind: 8 mph from Southwest

Location: Hessen

Current Time: Aug 30, 2014 at 6:23:05 PM

Latest Report: Aug 30, 2014 at 5:50 PM


Visibility: N/A

Pressure: 30.07 "Hg

Humidity: 100%

Dew point: 57 °F

Location of OlpeLocation

Historic Weather in Olpe — Graph

°F

Olpe temperature yesterday

Maximum temperature yesterday: 66 °F (at 1:50 PM)
Minimum temperature yesterday: 55 °F (at 7:50 AM)
Average temperature yesterday: 60 °F

Past Weeks' High & Low Weather Summary

 TemperatureHumidityPressure
High66 °F (Aug 28, 2:50 PM)100% (Aug 16, 7:20 AM)30.09 "Hg (Aug 16, 7:20 AM)
Low45 °F (Aug 20, 7:50 AM)51% (Aug 18, 4:50 PM)29.65 "Hg (Aug 26, 6:50 AM)
Average55 °F81%29.97 "Hg
* Reported Aug 15 4:20 PM — Aug 30 4:50 PM, Olpe, Weather by CustomWeather, © 2014

Note: Actual official high and low records may vary slightly from our data, if they occured in-between our weather recording intervals... More about our weather records

Advertising

Olpe weather history for previous 24 hours

 ConditionsComfort  
Time TempWeatherWind HumidityBarometerVisibility
4:50 PM
Aug 30
61 °FLight rain. Broken clouds.10 mph77%30.07 "HgN/A
4:20 PM61 °FPartly sunny.12 mph77%30.07 "HgN/A
3:50 PM61 °FPartly sunny.12 mph83%30.07 "HgN/A
3:20 PM61 °FPartly sunny.10 mph83%30.07 "HgN/A
2:50 PM59 °FPartly sunny.9 mph88%30.07 "HgN/A
2:20 PM59 °FBroken clouds.9 mph82%30.09 "HgN/A
1:50 PM61 °FBroken clouds.10 mph77%30.07 "HgN/A
1:20 PM61 °FBroken clouds.10 mph77%30.09 "HgN/A
12:50 PM61 °FBroken clouds.13 mph77%30.07 "HgN/A
12:20 PM61 °FBroken clouds.9 mph77%30.09 "HgN/A
11:50 AM61 °FBroken clouds.10 mph77%30.09 "HgN/A
11:20 AM59 °FBroken clouds.10 mph82%30.07 "HgN/A
10:50 AM57 °FBroken clouds.9 mph88%30.09 "HgN/A
10:20 AM57 °FPartly sunny.10 mph88%30.09 "HgN/A
9:50 AM57 °FPartly sunny.12 mph88%30.09 "HgN/A
9:20 AM55 °FPartly sunny.10 mph94%30.07 "HgN/A
8:50 AM54 °FPartly sunny.9 mph94%30.07 "HgN/A
8:20 AM54 °FFog.10 mph94%30.07 "HgN/A
7:50 AM54 °FPassing clouds.9 mph94%30.07 "HgN/A
6:50 AM52 °FPassing clouds.7 mph100%30.07 "HgN/A
6:20 AM52 °FPassing clouds.7 mph100%30.07 "HgN/A
9:50 PM
Aug 29
57 °FPassing clouds.5 mph88%30.07 "HgN/A
8:50 PM57 °FPassing clouds.3 mph100%30.04 "Hg4 mi
8:20 PM57 °FScattered clouds.7 mph100%30.04 "HgN/A
7:50 PM59 °FPartly sunny.6 mph94%30.04 "HgN/A
7:20 PM59 °FSprinkles. Broken clouds.7 mph94%30.04 "HgN/A
6:50 PM59 °FBroken clouds.8 mph94%30.04 "HgN/A
6:20 PM59 °FBroken clouds.6 mph100%30.04 "HgN/A
Weather by CustomWeather, © 2014

See weather overviewHow to use our weather pages